Home > Weather > Lubbock > Past weeks

Flag for USA Past Weather in Lubbock, Texas, USA — Yesterday and Last 2 Weeks

Now
81 °F

Scattered clouds.


Feels Like: 83 °F
Forecast: 67 / 92 °F
Wind: 14 mph from South

Location: Lubbock International Airport

Current Time: May 24, 2016 at 12:52:34 PM

Latest Report: May 24, 2016 at 11:53 AM


Visibility: 8 mi

Pressure: 29.77 "Hg (26.64 "Hg at 976m altitude)

Humidity: 58%

Dew Point: 65 °F

Location of LubbockLocation

Past Weather in Lubbock — Graph

°F

Lubbock Temperature Yesterday

Maximum temperature yesterday: 90 °F (at 3:53 PM)
Minimum temperature yesterday: 66 °F (at 1:53 AM)
Average temperature yesterday: 77 °F

High & Low Weather Summary for the Past Weeks

 TemperatureHumidityPressure
High92 °F (May 10, 3:53 PM)100% (May 16, 2:53 AM)30.29 "Hg (May 16, 2:53 AM)
Low48 °F (May 19, 3:53 AM)8% (May 10, 7:53 PM)29.49 "Hg (May 9, 4:53 PM)
Average66 °F67%29.91 "Hg
* Reported May 9 11:53 AM — May 24 11:53 AM, Lubbock, Weather by CustomWeather, © 2016

Note: Actual official high and low records may vary slightly from our data, if they occured in-between our weather recording intervals... More about our weather records

Advertising

Lubbock Weather History for the Previous 24 Hours

Scroll right to see more
 ConditionsComfort  
Time TempWeatherWind HumidityBarometerVisibility
11:53 AM
Tue, May 24
81 °FScattered clouds.14 mph58%29.77 "Hg8 mi
10:53 AM78 °FBroken clouds.16 mph66%29.78 "Hg7 mi
9:53 AM75 °FFog.17 mph74%29.77 "Hg6 mi
9:01 AM72 °FOvercast.14 mph84%29.91 "Hg5 mi
7:53 AM70 °FFog.9 mph90%29.74 "Hg5 mi
6:53 AM70 °FFog.13 mph87%29.73 "Hg5 mi
5:53 AM70 °FMostly cloudy.16 mph87%29.72 "Hg7 mi
4:53 AM69 °FOvercast.14 mph87%29.72 "Hg7 mi
3:53 AM69 °FFog.13 mph90%29.71 "Hg6 mi
2:53 AM70 °FPassing clouds.10 mph87%29.71 "Hg7 mi
1:53 AM71 °FFog.15 mph90%29.70 "Hg6 mi
12:53 AM72 °FFog.20 mph87%29.70 "Hg6 mi
11:53 PM
Mon, May 23
73 °FPassing clouds.22 mph81%29.70 "Hg7 mi
10:53 PM74 °FPassing clouds.22 mph71%29.67 "Hg8 mi
9:53 PM75 °FPassing clouds.20 mph69%29.63 "Hg7 mi
8:53 PM79 °FLow level haze.24 mph56%29.63 "Hg6 mi
7:53 PM84 °FSunny.18 mph37%29.59 "Hg8 mi
6:53 PM87 °FPassing clouds.22 mph37%29.59 "Hg8 mi
5:53 PM88 °FPassing clouds.23 mph45%29.58 "Hg8 mi
4:53 PM88 °FThunderstorms. Scattered clouds.18 mph43%29.60 "Hg8 mi
3:53 PM90 °FScattered clouds.10 mph32%29.63 "Hg8 mi
2:53 PM87 °FScattered clouds.15 mph39%29.67 "Hg8 mi
1:53 PM86 °FScattered clouds.12 mph43%29.70 "Hg7 mi
12:53 PM84 °FScattered clouds.12 mph49%29.72 "Hg7 mi
Weather by CustomWeather, © 2016

See weather overviewHow to use our weather pages